Weather History for Hillsdale, MI

Change the Weather History Date:

Monday, January 7, 2013

  Actual Average Record
Temperature  
Mean Temperature 30 °F -  
Max Temperature 34 °F 29 °F 62 °F (2008)
Min Temperature 25 °F 14 °F -14 °F (2014)
Degree Days  
Heating Degree Days 36    
Moisture  
Dew Point 23 °F    
Average Humidity 75    
Maximum Humidity 93    
Minimum Humidity 61    
Precipitation  
Precipitation 0.00 in - - ()
Sea Level Pressure  
Sea Level Pressure 30.25 in    
Wind  
Wind Speed 8 mph (SW)    
Max Wind Speed 21 mph    
Max Gust Speed 26 mph    
Visibility 9 miles    
Events      
Averages and records for this station are not official NWS values.
T = Trace of Precipitation, MM = Missing Value Source: NWS Daily Summary

Daily Weather History Graph

Daily Weather History Graph

Search for Another Location

Airport:

Trip Planner

Search our weather history database for the weather conditions in past years. The results will help you decide how hot, cold, wet, or windy it might be!

Date:

Astronomy

Jan. 07, 2013 Rise Set
Actual Time 8:05 AM EST 5:23 PM EST
Civil Twilight 7:34 AM EST 5:55 PM EST
Nautical Twilight 6:59 AM EST 6:29 PM EST
Astronomical Twilight 6:26 AM EST 7:03 PM EST
Moon 3:27 AM EST (1/7) 1:34 PM EST (1/7)
Length of Visible Light 10h 20m
Length of Day
9h 17m
Waning Crescent, 23% of the Moon is Illuminated
Jan 7
Waning Crescent
Jan 11
New
Jan 18
First Quarter
Jan 26
Full
Feb 3
Last Quarter

Hourly Weather History & Observations

Time (EST) Temp. Windchill Dew Point Humidity Pressure Visibility Wind Dir Wind Speed Gust Speed Precip Events Conditions
12:35 AM 31.5 °F 25.8 °F 24.8 °F 76% 30.26 in 10.0 mi WNW 5.8 mph - N/A   Overcast
12:55 AM 31.5 °F 24.9 °F 23.9 °F 74% 30.26 in 10.0 mi West 6.9 mph - N/A   Overcast
1:14 AM 30.7 °F 26.0 °F 24.3 °F 77% 30.27 in 10.0 mi WNW 4.6 mph - N/A   Overcast
1:35 AM 30.7 °F 24.1 °F 23.5 °F 75% 30.27 in 10.0 mi WNW 6.9 mph - N/A   Overcast
1:55 AM 30.6 °F 27.1 °F 23.2 °F 74% 30.27 in 10.0 mi West 3.5 mph - N/A   Overcast
2:14 AM 30.4 °F 24.5 °F 22.6 °F 73% 30.28 in 10.0 mi West 5.8 mph - N/A   Overcast
2:35 AM 30.9 °F 26.2 °F 21.6 °F 68% 30.27 in 10.0 mi NW 4.6 mph - N/A   Overcast
2:54 AM 30.7 °F 24.9 °F 22.1 °F 70% 30.28 in 10.0 mi WNW 5.8 mph - N/A   Overcast
3:15 AM 30.4 °F - 21.6 °F 70% 30.29 in 10.0 mi Calm Calm - N/A   Overcast
3:35 AM 30.6 °F - 21.7 °F 70% 30.30 in 10.0 mi Calm Calm - N/A   Overcast
3:54 AM 30.0 °F - 21.7 °F 71% 30.29 in 10.0 mi Calm Calm - N/A   Overcast
4:15 AM 30.7 °F - 21.6 °F 69% 30.30 in 10.0 mi Calm Calm - N/A   Overcast
4:34 AM 30.6 °F - 21.7 °F 70% 30.30 in 10.0 mi Calm Calm - N/A   Overcast
4:55 AM 30.9 °F 25.2 °F 22.5 °F 71% 30.31 in 10.0 mi West 5.8 mph - N/A   Overcast
5:14 AM 30.6 °F 27.1 °F 22.3 °F 71% 30.30 in 10.0 mi SW 3.5 mph - N/A   Overcast
5:35 AM 30.4 °F 24.5 °F 22.1 °F 71% 30.30 in 10.0 mi SSW 5.8 mph - N/A   Overcast
5:55 AM 29.8 °F 24.9 °F 21.9 °F 72% 30.30 in 10.0 mi SSW 4.6 mph - N/A   Overcast
6:14 AM 29.3 °F 25.6 °F 22.6 °F 76% 30.31 in 10.0 mi SW 3.5 mph - N/A   Overcast
6:35 AM 28.6 °F 23.5 °F 23.9 °F 83% 30.31 in 10.0 mi SW 4.6 mph - N/A   Mostly Cloudy
6:55 AM 27.5 °F 22.2 °F 23.5 °F 85% 30.32 in 10.0 mi SW 4.6 mph - N/A   Mostly Cloudy
7:35 AM 26.2 °F 19.6 °F 24.3 °F 92% 30.33 in 5.0 mi SSW 5.8 mph - N/A   Clear
7:54 AM 25.9 °F 20.3 °F 24.1 °F 93% 30.34 in 4.0 mi SW 4.6 mph - N/A   Clear
8:15 AM 25.2 °F 17.3 °F 23.4 °F 93% 30.34 in 3.0 mi SW 6.9 mph - N/A   Clear
8:35 AM 25.0 °F 17.1 °F 23.0 °F 92% 30.35 in 3.0 mi SW 6.9 mph - N/A   Clear
8:54 AM 25.0 °F 15.5 °F 22.6 °F 91% 30.34 in 4.0 mi SW 9.2 mph - N/A   Clear
9:15 AM 25.2 °F 18.3 °F 22.5 °F 89% 30.34 in 4.0 mi SW 5.8 mph - N/A   Clear
9:35 AM 26.1 °F 17.6 °F 22.5 °F 86% 30.35 in 5.0 mi SW 8.1 mph - N/A   Clear
9:54 AM 27.1 °F 18.9 °F 22.5 °F 83% 30.35 in 7.0 mi SSW 8.1 mph - N/A   Clear
10:14 AM 28.0 °F 19.3 °F 22.5 °F 80% 30.34 in 7.0 mi SSW 9.2 mph 17.3 mph N/A   Clear
10:35 AM 28.8 °F 19.0 °F 22.5 °F 77% 30.34 in 7.0 mi SSW 11.5 mph 16.1 mph N/A   Clear
10:54 AM 30.0 °F 20.0 °F 22.6 °F 74% 30.34 in 10.0 mi SSW 12.7 mph - N/A   Clear
11:15 AM 30.6 °F 20.2 °F 22.5 °F 72% 30.33 in 10.0 mi SSW 13.8 mph 19.6 mph N/A   Clear
11:35 AM 31.5 °F 20.9 °F 22.5 °F 69% 30.32 in 10.0 mi SSW 15.0 mph 20.7 mph N/A   Clear
11:54 AM 31.8 °F 21.4 °F 22.3 °F 68% 30.31 in 10.0 mi SW 15.0 mph 20.7 mph N/A   Clear
12:15 PM 32.2 °F 21.4 °F 22.5 °F 67% 30.30 in 10.0 mi SSW 16.1 mph 24.2 mph N/A   Clear
12:35 PM 32.4 °F 20.9 °F 22.6 °F 67% 30.28 in 10.0 mi SSW 18.4 mph 24.2 mph N/A   Clear
12:54 PM 32.7 °F 20.7 °F 22.8 °F 67% 30.27 in 10.0 mi SW 20.7 mph 24.2 mph N/A   Clear
1:15 PM 32.7 °F 21.1 °F 22.6 °F 66% 30.26 in 10.0 mi SSW 19.6 mph 26.5 mph N/A   Clear
1:35 PM 33.3 °F 22.1 °F 22.8 °F 66% 30.25 in 10.0 mi SSW 18.4 mph 25.3 mph N/A   Clear
2:15 PM 34.0 °F 23.0 °F 22.8 °F 64% 30.23 in 10.0 mi SSW 18.4 mph 25.3 mph N/A   Clear
2:35 PM 34.2 °F 24.0 °F 22.8 °F 63% 30.22 in 10.0 mi SSW 16.1 mph 26.5 mph N/A   Clear
2:54 PM 34.9 °F 26.2 °F 23.0 °F 62% 30.21 in 10.0 mi SSW 12.7 mph 24.2 mph N/A   Clear
3:15 PM 34.9 °F 26.2 °F 22.8 °F 61% 30.20 in 10.0 mi SSW 12.7 mph 20.7 mph N/A   Clear
3:34 PM 34.3 °F 25.5 °F 23.4 °F 64% 30.20 in 10.0 mi SSW 12.7 mph 19.6 mph N/A   Clear
3:55 PM 34.2 °F 24.8 °F 23.2 °F 64% 30.21 in 10.0 mi SSW 13.8 mph 20.7 mph N/A   Clear
4:14 PM 33.3 °F 24.6 °F 23.5 °F 68% 30.20 in 10.0 mi South 11.5 mph 20.7 mph N/A   Clear
4:35 PM 32.7 °F 25.0 °F 23.9 °F 70% 30.20 in 10.0 mi South 9.2 mph - N/A   Clear
4:55 PM 32.2 °F 23.2 °F 23.9 °F 72% 30.19 in 10.0 mi South 11.5 mph - N/A   Clear
5:15 PM 31.5 °F 22.3 °F 23.9 °F 74% 30.20 in 10.0 mi SSW 11.5 mph - N/A   Clear
5:34 PM 30.7 °F 21.4 °F 23.7 °F 75% 30.19 in 10.0 mi SSW 11.5 mph - N/A   Clear
6:14 PM 29.7 °F 22.0 °F 23.7 °F 79% 30.19 in 10.0 mi South 8.1 mph - N/A   Clear
6:34 PM 29.1 °F 20.6 °F 23.7 °F 80% 30.18 in 10.0 mi South 9.2 mph - N/A   Clear
6:55 PM 28.9 °F 21.1 °F 23.7 °F 81% 30.18 in 10.0 mi South 8.1 mph - N/A   Clear
7:14 PM 28.8 °F 21.7 °F 23.5 °F 81% 30.18 in 10.0 mi South 6.9 mph - N/A   Clear
7:35 PM 28.8 °F 20.9 °F 23.5 °F 81% 30.17 in 10.0 mi South 8.1 mph - N/A   Clear
7:55 PM 28.2 °F 19.5 °F 23.2 °F 81% 30.17 in 10.0 mi South 9.2 mph - N/A   Clear
8:14 PM 28.0 °F 20.0 °F 23.0 °F 81% 30.17 in 10.0 mi SSW 8.1 mph - N/A   Clear
8:35 PM 27.7 °F 18.8 °F 22.8 °F 82% 30.16 in 10.0 mi South 9.2 mph - N/A   Clear
8:54 PM 27.5 °F 19.3 °F 22.8 °F 83% 30.15 in 10.0 mi South 8.1 mph - N/A   Clear
9:15 PM 27.5 °F 16.8 °F 23.0 °F 83% 30.14 in 10.0 mi South 12.7 mph 17.3 mph N/A   Clear
9:35 PM 28.0 °F 17.0 °F 22.6 °F 80% 30.13 in 10.0 mi South 13.8 mph 19.6 mph N/A   Clear
9:55 PM 28.8 °F 18.4 °F 22.5 °F 77% 30.13 in 10.0 mi South 12.7 mph - N/A   Clear
10:35 PM 28.6 °F 20.7 °F 22.5 °F 78% 30.12 in 10.0 mi SSW 8.1 mph - N/A   Clear
10:55 PM 28.2 °F 18.3 °F 22.5 °F 79% 30.12 in 10.0 mi SSW 11.5 mph - N/A   Clear
11:14 PM 28.6 °F 19.9 °F 22.5 °F 78% 30.12 in 10.0 mi South 9.2 mph - N/A   Clear
11:55 PM 29.3 °F 20.8 °F 22.8 °F 77% 30.13 in 10.0 mi SSW 9.2 mph - N/A   Clear